Wetbulb
50.35 45.97 46.83 44.54 35.00 32.31 28.77 33.66 34.44 36.81 37.22 40.96 42.24 41.76 41.42 40.32 45.78 40.22 49.16 54.60 55.95 56.44 58.99 59.71 62.78 62.88 62.74 62.43 62.37 62.29 62.34 62.39 62.52 62.55 62.53 62.75 63.38 64.14 65.10 65.99 66.60 67.90 69.97 71.40 71.68 71.18 70.78 71.25 71.14
47.56 48.00 45.32 38.32 31.68 26.89 28.68 32.70 35.41 37.99 41.06 42.09 42.29 40.83 39.87 39.14 43.47 46.19 50.24 54.56 54.50 54.92 56.12 57.35 61.79 61.43 61.31 61.05 60.79 60.59 60.74 60.77 61.01 61.03 60.89 60.79 61.05 61.14 61.52 62.63 64.12 65.22 67.00 68.59 69.50 69.58 69.55 70.01 70.38
45.33 46.61 41.40 36.45 28.44 27.61 29.60 33.96 36.66 40.81 41.08 41.59 39.79 40.18 39.32 39.34 43.03 48.13 49.31 52.74 52.45 52.57 54.98 57.71 60.41 60.24 59.98 59.72 59.70 59.70 59.65 59.44 59.37 59.30 59.43 59.44 59.66 59.75 59.75 60.16 61.07 61.85 63.37 65.28 66.50 66.61 66.67 67.36 68.79
43.31 42.18 37.69 33.28 30.19 33.89 33.02 34.28 37.32 38.39 40.26 40.74 40.14 37.58 38.00 41.12 44.47 47.61 51.02 50.78 50.07 50.84 53.72 57.50 59.12 59.07 58.70 58.55 58.50 58.36 58.35 58.28 58.11 58.16 58.22 58.20 58.08 58.39 58.46 58.65 58.65 59.17 59.89 60.98 62.56 63.33 63.28 63.52 65.63
40.14 37.03 30.83 28.17 30.05 34.89 35.94 37.22 36.64 38.15 37.03 38.53 39.35 37.54 37.31 41.94 45.55 48.92 48.81 49.38 48.39 48.47 50.99 53.91 57.71 57.57 57.30 56.95 56.90 56.76 56.75 56.83 56.86 56.73 57.01 56.71 56.57 56.31 56.09 56.50 57.47 57.95 58.28 58.74 59.30 59.47 59.80 60.60 61.66
36.38 34.71 28.76 26.82 29.53 34.27 35.72 35.22 35.34 35.51 35.35 36.81 37.73 37.22 37.14 41.62 44.40 45.49 46.95 46.37 47.53 47.17 48.29 50.58 54.72 54.86 54.98 54.92 55.08 55.29 55.42 55.48 55.42 55.25 54.56 54.69 54.60 54.57 54.49 55.28 56.35 57.15 57.32 57.42 57.81 58.25 58.58 59.11 59.77
34.48 30.99 27.68 26.40 29.37 32.61 35.07 36.06 33.02 33.55 33.92 34.95 39.19 36.31 36.33 40.73 42.87 43.93 44.03 43.89 44.47 44.86 45.29 45.73 46.85 49.56 52.33 52.43 52.86 53.44 53.71 53.46 52.90 52.60 52.07 51.66 52.01 52.24 52.16 52.48 54.37 55.27 55.38 56.05 56.64 56.51 56.36 56.83 56.96
34.88 33.32 27.68 28.96 30.26 32.46 34.43 35.44 35.61 34.41 33.96 37.99 40.27 36.67 36.18 40.23 42.09 41.35 41.48 41.11 40.89 41.41 42.07 41.88 43.86 43.25 42.37 44.21 50.73 51.27 51.12 50.96 50.26 50.16 49.21 48.31 47.66 48.95 49.43 50.12 52.02 53.20 53.45 54.10 54.29 54.26 54.63 54.17 53.86
35.29 29.87 27.33 30.42 31.10 32.27 34.29 33.53 36.37 36.66 35.20 36.25 37.48 36.27 37.31 42.55 40.61 38.72 37.42 37.72 38.24 40.80 39.84 39.96 40.04 40.81 40.44 42.73 45.03 46.34 48.33 48.23 46.69 45.43 46.86 43.32 40.79 42.56 42.94 47.29 49.23 50.56 51.40 51.78 52.53 52.65 52.09 51.09 49.63
33.75 28.17 31.42 33.33 32.09 31.82 33.85 32.81 33.72 34.81 33.57 34.12 35.64 37.87 39.45 42.01 39.73 38.28 37.27 36.92 37.41 37.75 38.20 38.97 38.60 38.51 39.57 43.02 39.41 38.98 41.03 39.17 39.16 39.43 39.61 40.44 39.34 41.44 42.82 43.35 46.05 46.91 48.16 49.11 50.71 50.57 49.11 46.92 44.35
32.73 30.34 33.15 34.95 35.20 35.05 34.46 33.16 34.01 32.82 32.27 35.62 35.06 36.15 38.85 38.88 38.53 38.37 37.83 37.36 37.54 38.06 38.21 38.41 38.19 38.01 38.06 38.53 37.61 37.28 37.34 37.01 37.47 37.81 38.69 38.15 38.65 38.38 38.77 38.37 38.83 39.59 43.43 41.64 43.31 43.10 43.27 43.10 43.47
31.81 34.95 35.02 36.89 37.10 35.42 33.64 34.58 33.58 34.67 35.13 36.61 35.71 37.21 38.81 38.94 39.00 38.82 37.98 37.87 37.67 37.12 37.76 38.10 37.84 37.31 36.93 37.07 36.43 36.23 36.87 35.84 35.98 37.04 38.34 36.96 36.80 36.92 37.01 37.05 37.92 38.49 39.48 39.30 40.25 40.89 41.91 42.70 43.87
32.48 34.02 36.57 37.01 36.56 35.92 35.96 34.99 34.35 35.11 37.16 37.49 37.59 38.69 39.09 38.85 39.57 39.61 39.36 38.77 38.32 37.50 37.15 37.04 36.73 36.32 36.65 36.07 35.42 35.30 35.29 35.21 35.47 36.31 37.39 37.57 36.58 35.89 36.40 36.84 37.39 37.21 37.99 38.36 38.88 39.84 40.92 42.06 42.95
34.84 34.90 35.25 36.04 35.25 35.50 34.29 32.29 33.61 35.02 34.72 35.77 35.66 34.43 36.80 38.50 39.12 37.30 38.07 38.53 38.65 38.92 36.93 36.58 36.79 35.99 36.27 34.69 34.28 34.10 34.20 34.59 35.23 35.19 36.20 37.60 37.06 35.42 36.01 36.04 36.41 36.40 37.23 38.01 38.90 39.24 40.09 41.07 41.43
35.01 31.87 33.83 34.99 34.75 34.29 34.45 32.16 31.28 35.80 35.94 35.03 33.68 34.21 34.92 36.34 37.63 38.59 39.80 39.10 39.49 38.30 37.09 36.17 35.76 35.90 34.82 34.16 33.94 33.69 34.32 35.09 34.00 34.73 35.61 36.71 37.47 35.71 34.52 34.67 35.05 35.93 37.25 38.27 38.56 38.71 39.76 39.63 40.98
31.08 30.00 27.51 33.50 33.88 33.22 32.92 28.45 34.74 34.65 33.55 33.88 34.49 33.25 34.29 34.97 35.78 36.68 38.27 38.85 38.68 36.71 36.40 36.33 38.11 35.29 34.35 33.66 33.26 33.73 33.66 32.99 33.28 33.97 34.42 35.78 37.11 36.16 34.36 34.59 34.39 36.04 37.01 36.90 36.15 36.37 36.73 37.54 38.79
28.98 25.53 26.37 30.76 33.98 32.37 30.89 28.36 34.03 35.04 33.99 33.35 32.82 30.51 31.28 31.73 32.63 33.30 35.08 36.60 36.48 36.36 35.86 34.95 34.96 34.53 34.27 33.71 33.57 33.08 33.13 32.41 32.03 31.94 33.16 34.57 35.50 35.99 34.58 34.17 34.49 35.81 35.20 34.71 34.76 34.97 35.47 35.97 37.39
26.13 25.14 27.57 28.36 30.87 30.73 28.36 28.66 31.90 33.72 32.98 31.35 28.39 27.73 28.14 29.01 29.72 32.27 33.13 33.24 33.07 33.45 34.20 34.15 34.35 33.51 33.09 32.62 31.56 31.16 31.05 30.96 30.58 30.80 32.21 33.75 34.24 35.16 34.10 33.61 33.84 34.65 33.85 33.27 33.62 33.95 35.59 36.12 36.76
30.11 27.67 26.52 28.35 30.56 28.92 28.04 27.54 29.81 31.22 28.74 28.39 27.79 27.57 27.46 28.24 29.29 30.96 31.85 31.65 31.70 31.70 32.26 32.52 32.15 31.60 30.96 29.28 28.43 28.18 27.57 28.58 29.59 30.72 32.61 33.32 33.91 34.33 33.01 32.65 33.06 33.22 32.50 32.21 33.61 34.16 34.11 35.21 36.49
29.28 26.78 26.31 28.46 30.35 28.51 26.99 27.42 29.28 27.92 26.80 26.86 26.63 26.44 26.73 27.09 28.16 30.00 30.43 30.19 30.43 30.26 30.47 30.78 31.30 30.54 29.98 29.36 28.07 27.89 27.26 27.89 28.78 30.71 31.23 32.11 32.44 33.35 33.70 32.34 31.84 31.70 31.43 31.81 32.66 33.49 33.47 34.49 34.94
28.53 26.58 26.13 26.43 27.95 27.10 25.48 22.87 24.26 27.56 27.42 28.05 27.91 27.54 27.56 26.61 26.51 26.75 28.22 27.68 28.21 28.14 28.51 30.01 29.80 29.35 29.07 28.95 28.50 28.03 27.97 27.93 27.90 28.45 28.86 30.09 31.14 32.44 32.57 31.30 30.76 30.59 31.24 30.86 31.88 33.24 33.14 31.41 33.06
26.60 30.27 28.64 26.56 22.62 20.74 24.25 15.26 22.96 26.05 26.43 27.55 27.43 26.82 25.86 25.72 27.31 27.95 27.40 26.64 26.71 27.71 27.27 28.76 29.11 28.59 29.03 28.44 26.90 25.56 25.68 25.48 26.45 26.74 27.71 28.21 29.80 30.71 31.12 30.92 30.14 30.22 31.06 32.15 32.91 33.60 32.92 32.83 31.25
27.39 29.98 27.93 26.25 21.63 17.15 21.44 12.94 21.06 23.87 23.37 25.00 26.03 26.77 26.47 26.14 26.82 27.07 27.42 28.74 27.98 27.81 26.22 26.74 27.54 27.72 28.08 27.63 26.64 25.48 24.76 25.32 25.80 25.97 25.81 26.33 27.93 29.21 29.42 29.81 28.63 28.72 29.72 29.97 31.72 31.63 30.95 31.71 31.91
30.97 28.53 27.63 24.94 20.27 10.25 17.76 18.19 19.56 20.31 22.31 23.86 25.19 26.59 26.59 26.65 27.66 28.24 28.50 28.03 26.75 26.65 26.47 25.98 26.41 27.02 27.21 26.67 26.58 25.77 24.79 24.68 24.50 24.84 24.83 25.90 27.28 27.82 28.17 29.00 28.72 30.26 30.74 30.56 30.79 31.14 30.74 30.59 30.80
29.10 26.54 14.63 9.79 7.40 12.03 19.65 18.11 21.78 23.54 23.91 23.97 24.13 23.45 24.26 26.44 26.80 27.03 26.82 26.70 26.72 26.32 26.53 26.68 26.43 25.69 25.56 25.53 25.46 25.77 25.84 25.37 24.87 24.97 25.38 25.93 25.50 25.80 26.95 27.67 27.70 28.97 29.99 30.13 30.61 30.50 30.47 30.46 29.28
27.25 25.44 18.79 8.75 6.81 12.05 21.18 12.41 21.95 21.83 17.47 14.67 18.83 16.66 24.94 26.44 26.55 26.30 26.65 26.07 25.30 26.48 26.99 25.62 25.12 24.48 24.96 24.04 24.75 24.64 24.41 24.18 25.36 26.13 26.27 25.79 24.03 24.55 29.43 29.19 29.18 29.35 29.60 29.83 30.26 30.34 30.46 30.85 29.83
25.75 22.79 25.17 14.11 9.59 11.33 13.44 19.21 23.63 24.74 20.74 18.75 17.62 25.06 24.54 25.25 24.71 24.07 24.99 24.78 24.52 24.01 24.29 24.12 23.91 24.13 23.92 23.83 22.57 22.00 23.13 24.94 24.98 25.58 25.67 25.77 28.09 27.55 28.86 28.75 28.39 28.66 29.08 29.49 29.63 29.18 28.40 28.55 28.38
26.23 27.73 20.58 15.14 6.52 6.38 10.02 11.45 16.32 18.01 16.74 20.11 18.53 20.99 23.31 23.88 24.09 23.29 23.25 23.69 24.02 23.73 24.17 23.42 22.60 19.61 19.26 21.65 21.37 23.35 22.80 22.60 20.65 19.98 22.51 26.08 26.71 27.38 27.18 27.34 27.24 27.27 27.95 28.50 28.47 27.77 28.12 27.60 27.87
24.00 21.20 22.80 22.94 14.25 5.10 2.22 11.12 14.36 18.00 17.14 18.54 17.98 23.47 20.38 20.99 20.92 20.97 21.15 21.07 16.37 15.75 14.55 15.68 14.92 12.72 17.24 19.09 19.27 20.80 21.28 20.50 16.83 20.07 25.40 25.90 26.06 26.02 26.37 26.36 26.57 26.69 27.20 27.77 27.58 27.43 27.23 26.92 26.98
24.56 20.01 22.46 16.64 10.71 12.36 6.97 12.64 10.59 11.70 15.54 15.99 19.90 25.16 20.09 21.25 19.34 19.37 18.80 13.86 13.09 11.94 13.09 12.45 9.20 8.61 15.26 14.69 16.35 18.96 20.08 18.45 14.23 18.05 23.28 25.96 25.57 26.49 26.30 26.57 26.49 26.82 27.33 27.71 26.94 25.65 27.22 26.95 25.35
MSLP
1015.10 1014.94 1015.12 1015.59 1017.29 1017.81 1016.97 1015.48 1014.13 1013.27 1012.69 1012.11 1012.16 1012.60 1012.81 1013.41 1014.25 1015.83 1015.63 1015.55 1015.51 1015.75 1015.70 1015.99 1016.09 1016.02 1016.14 1016.21 1016.22 1016.27 1016.33 1016.32 1016.17 1016.14 1016.06 1016.02 1015.93 1015.99 1016.01 1015.98 1015.86 1015.61 1015.14 1014.76 1014.46 1014.47 1014.50 1014.54 1014.66
1015.23 1015.01 1015.61 1016.75 1017.67 1017.96 1016.52 1014.83 1013.86 1012.90 1012.34 1012.33 1012.53 1012.93 1013.34 1013.96 1014.67 1015.58 1015.92 1015.91 1015.84 1015.98 1016.17 1016.27 1016.42 1016.67 1016.67 1016.57 1016.57 1016.57 1016.57 1016.63 1016.60 1016.49 1016.42 1016.42 1016.40 1016.33 1016.31 1016.23 1016.10 1015.88 1015.58 1015.34 1014.83 1014.88 1014.58 1014.78 1014.78
1015.08 1015.33 1016.66 1017.44 1017.88 1017.47 1016.08 1014.26 1013.35 1012.63 1012.35 1012.44 1012.81 1013.29 1013.74 1014.31 1014.98 1015.53 1015.63 1015.98 1016.23 1016.50 1016.60 1016.68 1016.74 1016.91 1017.08 1017.08 1016.92 1016.92 1016.93 1016.92 1016.91 1016.83 1016.66 1016.64 1016.64 1016.67 1016.49 1016.37 1016.28 1016.05 1015.90 1015.43 1015.27 1015.27 1015.57 1015.61 1015.41
1015.44 1016.18 1017.69 1017.76 1017.59 1016.37 1015.26 1013.73 1013.12 1012.74 1012.36 1012.35 1012.73 1013.63 1014.24 1014.53 1014.91 1015.26 1015.71 1016.13 1016.65 1016.94 1016.95 1017.03 1017.07 1017.15 1017.32 1017.38 1017.38 1017.33 1017.27 1017.25 1017.22 1017.13 1017.03 1016.96 1016.90 1016.83 1016.79 1016.74 1016.54 1016.44 1016.24 1016.18 1015.99 1015.94 1015.91 1015.83 1015.65
1016.20 1017.21 1017.98 1018.02 1017.13 1015.76 1014.48 1013.54 1013.03 1012.78 1012.61 1012.59 1012.89 1013.66 1014.47 1014.91 1015.24 1015.50 1015.99 1016.50 1016.92 1017.40 1017.35 1017.42 1017.50 1017.55 1017.64 1017.78 1017.77 1017.78 1017.77 1017.65 1017.58 1017.45 1017.37 1017.39 1017.34 1017.28 1017.24 1017.10 1016.86 1016.70 1016.59 1016.49 1016.40 1016.27 1016.00 1015.81 1015.62
1017.04 1017.64 1018.33 1017.97 1016.71 1015.21 1014.20 1013.41 1013.06 1012.72 1012.63 1012.84 1013.27 1014.04 1014.82 1015.33 1015.79 1016.24 1016.41 1016.93 1017.20 1017.49 1017.74 1017.87 1017.98 1018.10 1018.11 1018.20 1018.14 1018.08 1018.12 1018.14 1018.05 1017.98 1017.98 1017.89 1017.89 1017.79 1017.65 1017.45 1017.18 1016.95 1016.96 1016.82 1016.66 1016.42 1016.09 1015.94 1015.90
1016.98 1017.79 1017.69 1017.20 1016.21 1015.07 1013.91 1013.30 1012.98 1012.80 1012.86 1013.03 1013.38 1014.18 1015.06 1015.60 1016.04 1016.47 1016.85 1017.30 1017.61 1017.81 1018.06 1018.33 1018.56 1018.54 1018.52 1018.60 1018.64 1018.58 1018.56 1018.58 1018.67 1018.62 1018.63 1018.62 1018.48 1018.37 1018.23 1018.09 1017.72 1017.47 1017.45 1017.22 1016.95 1016.83 1016.53 1016.34 1016.15
1016.87 1017.60 1017.57 1016.66 1015.83 1014.70 1013.83 1013.34 1013.10 1013.12 1012.97 1013.11 1013.34 1014.12 1014.80 1015.33 1016.21 1016.85 1017.34 1017.68 1017.89 1018.07 1018.26 1018.62 1018.85 1019.03 1019.15 1019.10 1018.98 1019.04 1019.06 1019.09 1019.14 1019.15 1019.21 1019.20 1019.16 1018.99 1018.80 1018.62 1018.27 1018.08 1017.91 1017.64 1017.39 1017.16 1016.86 1016.75 1016.58
1016.60 1017.47 1017.42 1016.14 1015.38 1014.43 1014.02 1013.77 1013.32 1013.34 1013.40 1013.41 1013.54 1014.04 1014.71 1015.26 1016.33 1017.26 1017.94 1018.37 1018.52 1018.60 1018.60 1018.69 1018.93 1019.16 1019.34 1019.40 1019.45 1019.51 1019.49 1019.55 1019.65 1019.69 1019.62 1019.73 1019.71 1019.57 1019.47 1019.19 1018.87 1018.61 1018.30 1017.98 1017.63 1017.40 1017.33 1017.18 1017.03
1016.62 1017.22 1016.25 1015.19 1014.60 1014.27 1014.13 1014.14 1014.11 1013.95 1013.76 1013.84 1013.89 1014.34 1014.94 1015.59 1016.33 1017.05 1017.53 1017.94 1018.39 1018.75 1018.94 1018.94 1019.02 1019.17 1019.34 1019.43 1019.78 1019.87 1019.87 1019.98 1020.01 1020.04 1020.03 1020.03 1020.04 1019.88 1019.76 1019.66 1019.36 1019.06 1018.68 1018.40 1018.12 1017.90 1017.75 1017.58 1017.30
1016.32 1016.16 1015.42 1014.89 1014.61 1014.47 1014.40 1014.39 1014.25 1014.16 1014.02 1013.86 1014.06 1014.46 1015.38 1016.04 1016.56 1017.04 1017.42 1017.74 1018.02 1018.46 1018.78 1018.95 1019.12 1019.31 1019.46 1019.72 1019.96 1020.14 1020.25 1020.30 1020.29 1020.23 1020.19 1020.20 1020.19 1020.19 1020.13 1020.02 1019.83 1019.57 1019.24 1019.00 1018.63 1018.32 1018.03 1017.77 1017.55
1015.94 1015.40 1015.12 1014.77 1014.74 1014.81 1014.72 1014.58 1014.58 1014.27 1013.88 1013.84 1014.26 1014.61 1015.31 1015.87 1016.32 1016.51 1016.87 1017.36 1017.92 1018.37 1018.71 1018.95 1019.15 1019.38 1019.73 1020.05 1020.30 1020.39 1020.41 1020.47 1020.51 1020.43 1020.28 1020.34 1020.41 1020.40 1020.29 1020.20 1020.04 1019.86 1019.63 1019.40 1019.10 1018.72 1018.27 1017.95 1017.69
1015.88 1015.38 1015.19 1014.96 1015.11 1015.12 1014.95 1014.92 1014.93 1013.96 1013.86 1014.15 1014.36 1014.65 1015.12 1015.59 1015.84 1016.16 1016.57 1017.18 1017.61 1018.05 1018.44 1018.87 1019.25 1019.52 1019.81 1020.10 1020.40 1020.58 1020.74 1020.78 1020.71 1020.60 1020.50 1020.45 1020.56 1020.66 1020.54 1020.40 1020.18 1019.99 1019.78 1019.60 1019.36 1019.00 1018.62 1018.26 1017.82
1015.68 1015.60 1015.46 1015.18 1015.07 1015.08 1015.20 1015.10 1015.14 1013.93 1013.99 1014.19 1014.50 1014.86 1015.26 1015.59 1015.68 1016.26 1016.64 1016.92 1017.20 1017.53 1018.14 1018.71 1019.28 1019.61 1019.86 1020.23 1020.48 1020.75 1020.86 1020.95 1020.98 1020.87 1020.73 1020.60 1020.64 1020.74 1020.75 1020.62 1020.48 1020.28 1020.00 1019.66 1019.40 1019.14 1018.78 1018.39 1017.95
1015.75 1015.99 1015.63 1015.10 1014.97 1015.04 1015.03 1015.24 1014.86 1013.98 1014.37 1014.58 1014.86 1015.23 1015.47 1015.71 1016.04 1015.94 1015.90 1016.41 1016.74 1017.35 1017.99 1018.53 1019.03 1019.55 1019.95 1020.25 1020.49 1020.71 1020.85 1020.97 1021.12 1021.11 1020.91 1020.71 1020.63 1020.80 1020.90 1020.84 1020.67 1020.47 1020.16 1019.81 1019.48 1019.14 1018.75 1018.47 1018.02
1016.25 1016.46 1016.28 1015.28 1015.34 1015.31 1015.35 1015.13 1014.26 1014.30 1014.85 1015.32 1015.56 1015.95 1015.98 1016.07 1016.26 1016.25 1016.05 1016.20 1016.69 1017.21 1017.83 1018.58 1019.04 1019.41 1019.94 1020.35 1020.63 1020.78 1020.95 1021.09 1021.17 1021.19 1021.07 1020.83 1020.69 1020.74 1020.91 1020.92 1020.83 1020.56 1020.29 1019.98 1019.75 1019.45 1019.04 1018.65 1018.21
1016.92 1016.93 1016.59 1015.84 1015.50 1015.61 1015.89 1015.69 1014.92 1015.01 1015.75 1016.09 1016.20 1016.56 1016.90 1016.93 1016.97 1016.93 1016.62 1016.30 1016.51 1017.08 1017.90 1018.75 1019.36 1019.83 1020.22 1020.53 1020.80 1020.95 1021.04 1021.23 1021.22 1021.15 1021.19 1021.06 1020.82 1020.76 1020.86 1020.92 1020.89 1020.66 1020.44 1020.26 1020.02 1019.64 1019.39 1018.92 1018.41
1016.82 1017.20 1016.76 1016.30 1016.25 1016.20 1016.47 1016.33 1015.72 1015.94 1016.45 1016.79 1017.11 1017.37 1017.70 1018.00 1018.07 1017.79 1017.43 1017.22 1017.39 1017.75 1018.34 1019.02 1019.64 1020.12 1020.46 1020.78 1021.03 1021.21 1021.26 1021.37 1021.30 1021.19 1021.05 1021.03 1020.90 1020.74 1020.83 1020.94 1020.89 1020.74 1020.55 1020.42 1020.16 1019.87 1019.37 1018.99 1018.48
1016.17 1016.66 1016.72 1016.53 1016.67 1016.94 1016.93 1016.97 1016.66 1016.79 1017.12 1017.37 1017.66 1017.91 1018.24 1018.56 1018.62 1018.43 1018.35 1018.39 1018.50 1018.85 1019.26 1019.67 1020.07 1020.48 1020.71 1021.06 1021.27 1021.43 1021.59 1021.55 1021.37 1021.23 1021.06 1021.02 1020.97 1020.89 1020.90 1020.98 1020.98 1020.85 1020.75 1020.61 1020.26 1019.90 1019.53 1019.06 1018.51
1016.52 1016.79 1016.92 1017.04 1017.32 1017.69 1017.65 1017.17 1016.93 1017.13 1017.50 1017.87 1018.03 1018.23 1018.48 1018.62 1018.70 1018.82 1018.97 1019.23 1019.57 1019.65 1019.90 1020.17 1020.43 1020.74 1020.94 1021.15 1021.36 1021.46 1021.58 1021.66 1021.60 1021.36 1021.23 1021.24 1021.16 1021.02 1020.83 1021.04 1021.03 1020.98 1020.84 1020.62 1020.45 1020.13 1019.73 1019.40 1019.10
1016.66 1016.95 1017.27 1017.73 1018.16 1018.53 1018.75 1017.82 1017.25 1017.36 1017.79 1018.07 1018.26 1018.45 1018.66 1018.76 1018.86 1018.98 1019.23 1019.51 1019.88 1020.21 1020.33 1020.45 1020.64 1020.86 1021.00 1021.18 1021.41 1021.50 1021.55 1021.63 1021.66 1021.59 1021.50 1021.51 1021.42 1021.23 1021.18 1021.16 1021.14 1021.08 1020.89 1020.80 1020.61 1020.33 1020.08 1019.84 1019.60
1016.87 1016.89 1017.58 1018.51 1019.42 1020.34 1019.99 1019.43 1017.94 1017.59 1017.99 1018.16 1018.27 1018.62 1018.77 1018.85 1018.96 1019.14 1019.41 1019.64 1020.00 1020.21 1020.47 1020.55 1020.71 1020.86 1021.02 1021.24 1021.48 1021.65 1021.78 1021.93 1021.90 1021.88 1021.78 1021.74 1021.51 1021.27 1021.27 1021.16 1021.09 1021.05 1020.92 1020.77 1020.69 1020.47 1020.43 1020.21 1019.93
1016.88 1017.41 1018.39 1019.50 1020.59 1021.39 1021.16 1021.34 1018.01 1018.25 1018.43 1018.27 1018.42 1018.83 1018.94 1018.96 1019.12 1019.25 1019.44 1019.63 1019.87 1020.22 1020.59 1020.72 1020.82 1020.92 1021.03 1021.23 1021.45 1021.71 1021.89 1021.96 1021.90 1021.96 1021.92 1021.73 1021.54 1021.27 1021.29 1021.14 1021.09 1021.06 1021.12 1021.12 1020.94 1020.84 1020.78 1020.64 1020.52
1017.31 1018.26 1019.37 1020.64 1021.80 1022.46 1021.33 1021.29 1018.82 1018.86 1018.18 1018.27 1018.72 1019.14 1019.20 1019.17 1019.32 1019.39 1019.41 1019.61 1019.86 1020.25 1020.58 1020.79 1020.88 1020.91 1021.03 1021.25 1021.46 1021.67 1021.82 1021.87 1021.86 1021.90 1021.91 1021.65 1021.57 1021.28 1021.31 1021.18 1021.08 1020.94 1021.07 1021.09 1021.06 1020.92 1020.86 1020.85 1020.76
1017.62 1018.59 1020.46 1021.94 1022.97 1022.33 1021.81 1021.83 1018.51 1018.22 1018.35 1018.69 1019.31 1019.30 1019.31 1019.58 1019.70 1019.76 1019.85 1019.86 1019.98 1020.24 1020.40 1020.73 1020.81 1020.93 1021.03 1021.27 1021.45 1021.59 1021.63 1021.69 1021.74 1021.69 1021.69 1021.57 1021.52 1021.31 1021.24 1021.20 1021.15 1021.11 1021.14 1021.01 1020.83 1020.86 1020.87 1020.72 1020.69
1017.70 1018.16 1019.23 1021.08 1022.47 1022.57 1022.12 1021.00 1018.26 1018.33 1018.81 1019.48 1019.82 1019.46 1019.65 1019.89 1020.22 1020.38 1020.16 1020.02 1020.10 1020.10 1020.25 1020.60 1020.76 1020.89 1021.11 1021.32 1021.41 1021.52 1021.53 1021.58 1021.54 1021.56 1021.44 1021.45 1021.40 1021.28 1021.03 1020.95 1020.99 1021.02 1020.86 1020.71 1020.71 1020.68 1020.64 1020.42 1020.34
1018.03 1018.58 1019.15 1020.79 1022.78 1023.17 1021.66 1019.99 1018.53 1018.99 1019.81 1020.10 1019.99 1019.78 1020.08 1020.24 1020.52 1020.67 1020.42 1020.25 1020.34 1020.35 1020.51 1020.67 1020.82 1020.93 1021.06 1021.27 1021.39 1021.40 1021.42 1021.46 1021.43 1021.39 1021.33 1021.23 1021.13 1021.04 1020.89 1020.82 1020.98 1020.79 1020.68 1020.63 1020.55 1020.51 1020.29 1020.12 1020.14
1017.52 1018.11 1019.36 1020.92 1022.47 1023.30 1021.94 1021.44 1019.77 1019.99 1020.36 1020.56 1020.48 1020.38 1020.46 1020.71 1020.82 1021.03 1020.82 1020.67 1020.60 1020.59 1020.72 1020.88 1020.98 1021.17 1021.20 1021.23 1021.28 1021.23 1021.32 1021.36 1021.35 1021.27 1021.19 1021.06 1020.86 1020.76 1020.70 1020.74 1020.72 1020.67 1020.51 1020.36 1020.30 1020.08 1019.96 1019.99 1019.98
1018.31 1018.44 1019.09 1019.80 1021.18 1022.33 1022.89 1020.54 1019.13 1019.60 1020.19 1020.56 1020.71 1020.65 1020.77 1021.20 1021.42 1021.54 1021.42 1021.28 1021.32 1021.24 1021.34 1021.31 1021.32 1021.45 1021.38 1021.24 1021.20 1021.18 1021.22 1021.25 1021.27 1021.18 1020.98 1020.75 1020.59 1020.52 1020.49 1020.51 1020.54 1020.47 1020.25 1020.07 1019.87 1019.77 1019.75 1019.78 1019.62
1018.15 1018.29 1018.57 1019.52 1021.56 1022.45 1022.79 1020.71 1019.62 1020.26 1020.68 1020.68 1020.77 1020.75 1020.80 1021.29 1021.59 1021.96 1021.99 1021.79 1021.90 1021.92 1021.78 1021.56 1021.43 1021.37 1021.28 1021.21 1021.08 1020.98 1021.06 1021.18 1021.13 1020.86 1020.58 1020.43 1020.34 1020.23 1020.29 1020.35 1020.31 1020.10 1019.89 1019.61 1019.74 1019.70 1019.67 1019.46 1019.45
Wind_Speed
4 4 2 6 5 5 4 7 2 3 2 1 2 2 3 2 4 5 3 3 7 6 6 6 9 10 10 10 11 11 11 11 13 13 14 14 14 13 13 12 13 12 14 15 13 9 6 10 10
3 2 5 3 5 2 6 5 5 5 2 7 5 2 1 2 2 4 5 4 6 7 6 6 9 8 9 10 11 10 11 12 12 13 13 13 13 13 13 13 12 13 13 13 15 16 17 17 9
0 4 4 5 3 6 5 4 4 2 1 4 4 3 4 2 2 8 2 8 7 7 6 6 9 9 9 9 10 10 11 11 12 13 13 13 14 13 13 13 14 14 14 15 15 15 13 11 11
2 5 5 4 6 7 6 3 3 2 3 1 2 1 1 1 3 8 9 10 8 6 6 8 9 9 9 9 10 10 11 12 12 12 12 13 13 14 14 14 14 13 13 13 12 12 12 12 12
5 3 3 1 6 6 6 5 4 5 2 2 2 2 2 2 5 12 11 9 10 6 5 6 9 9 9 9 9 10 11 11 12 13 13 13 14 14 14 14 13 13 13 12 12 12 12 13 13
4 4 3 4 6 5 6 4 3 3 1 1 1 4 3 1 7 6 8 8 6 8 6 6 8 8 9 8 9 10 10 11 12 13 13 13 13 13 14 15 15 14 14 13 13 12 13 13 13
6 4 5 3 5 5 4 5 2 1 1 2 3 2 2 2 6 7 8 7 7 6 7 6 5 7 9 9 9 9 10 11 12 12 13 13 13 13 14 14 14 14 14 14 14 14 14 14 14
6 4 2 5 4 6 2 4 1 1 2 2 6 5 4 4 9 8 6 6 6 6 6 6 5 5 5 4 8 9 10 10 11 12 12 13 13 13 14 14 14 14 13 13 13 14 14 14 15
4 4 3 5 6 4 3 3 4 1 1 3 2 2 2 10 11 7 5 3 3 3 5 6 6 5 4 4 5 8 9 10 10 9 11 8 5 6 8 12 13 14 13 14 13 13 13 14 13
5 4 9 5 2 3 1 1 3 4 1 3 4 1 3 10 10 12 9 9 6 5 4 5 6 5 4 4 4 4 5 4 4 5 5 4 5 5 7 9 13 14 14 14 14 13 13 10 5
5 7 5 3 2 1 2 2 2 3 3 8 5 3 5 5 7 8 7 6 8 7 5 6 6 5 6 4 3 2 2 3 3 5 5 4 4 3 3 3 4 4 9 4 6 6 4 6 5
3 7 4 2 2 1 3 1 3 7 7 1 3 1 6 10 11 11 10 9 9 7 7 6 6 6 5 3 3 2 2 2 2 3 5 4 3 4 4 3 4 4 3 5 5 4 6 6 5
3 3 2 3 3 6 2 7 6 10 9 7 8 6 9 9 10 7 5 6 8 8 7 7 6 6 5 5 3 2 2 3 3 3 4 4 3 4 4 4 4 4 4 3 4 4 4 5 6
1 3 6 6 4 4 4 3 5 4 3 6 3 4 7 9 11 3 7 8 11 9 8 7 6 5 5 4 4 3 2 2 3 3 3 4 3 3 3 4 4 4 4 4 4 4 4 4 5
0 5 6 6 2 6 6 6 9 8 5 5 3 6 5 7 4 11 10 9 10 5 9 9 8 7 6 6 4 3 2 2 2 3 3 3 3 3 3 3 4 4 4 5 5 4 5 5 5
1 2 3 0 5 2 4 8 5 2 4 6 8 8 8 6 7 7 7 7 8 9 11 9 7 7 6 5 3 2 2 2 2 2 3 4 3 3 3 3 4 4 4 4 4 4 5 4 5
2 4 5 7 1 3 3 6 4 6 8 10 9 8 7 7 8 9 9 6 8 10 12 8 7 6 6 4 3 2 3 2 2 2 3 4 4 4 2 3 3 4 3 3 4 3 3 4 5
7 5 5 5 1 0 3 9 9 7 8 8 6 6 6 6 7 8 7 7 7 8 9 8 6 6 5 4 3 2 2 1 2 2 2 4 3 3 2 2 3 4 3 4 4 4 3 3 5
5 5 5 2 1 2 6 7 10 7 4 6 5 5 5 5 4 7 8 8 9 8 8 6 7 4 2 2 2 2 1 2 1 3 3 4 4 4 3 2 3 3 3 4 5 3 4 3 5
3 4 5 2 2 0 4 11 7 1 1 2 2 2 2 1 4 5 6 7 7 5 5 5 5 4 2 2 1 2 1 1 1 1 3 4 5 4 2 3 3 4 3 4 4 4 3 2 7
5 6 4 3 3 1 5 8 3 2 1 2 1 1 1 1 1 1 2 3 3 3 3 4 5 4 3 3 2 1 1 1 1 2 2 3 4 3 3 3 3 4 3 3 4 5 7 4 4
5 6 5 5 4 4 2 7 5 5 5 4 4 1 1 2 1 1 2 2 4 4 3 4 4 4 3 3 2 2 1 1 1 1 2 3 4 2 3 3 4 4 3 4 4 4 4 4 4
4 5 5 4 4 4 1 4 7 3 5 7 6 6 4 3 4 6 6 6 5 4 5 4 4 3 2 3 2 2 2 2 1 1 3 3 2 2 3 3 3 3 3 3 5 4 5 4 5
9 6 6 5 3 2 5 5 6 6 7 4 4 5 3 5 5 5 5 4 3 3 3 4 4 3 3 3 3 3 4 3 2 2 3 2 1 1 2 3 3 3 3 3 3 3 4 4 4
3 5 2 5 2 7 1 3 10 5 5 5 5 2 4 5 5 6 6 5 5 6 5 5 5 4 4 3 3 3 4 4 4 4 3 3 2 1 3 2 3 2 3 4 3 4 5 4 5
6 6 6 8 5 4 2 8 8 6 2 3 4 4 4 5 5 6 6 5 5 5 4 5 5 4 4 4 4 4 4 2 3 4 3 2 2 3 3 2 3 5 4 4 4 4 4 4 4
6 4 3 8 1 4 4 7 6 5 1 2 2 1 4 6 6 7 7 4 4 4 5 6 5 4 4 4 3 3 3 4 3 4 4 3 2 3 3 2 4 4 5 5 5 4 5 4 4
2 5 4 3 3 5 5 6 8 5 6 3 1 2 5 5 6 7 6 5 4 5 4 4 3 5 4 4 3 3 3 3 3 3 3 4 3 3 3 4 4 5 5 5 5 4 4 4 5
3 3 2 3 4 7 2 9 7 9 9 8 6 4 5 5 5 5 6 5 5 4 4 4 3 4 5 4 3 3 3 3 3 4 4 3 3 3 4 4 5 5 5 5 4 4 4 6 6
1 5 5 5 5 1 4 10 2 4 6 5 5 4 3 3 4 5 6 5 5 5 6 6 4 5 5 4 3 4 3 4 4 4 3 3 4 4 5 6 6 6 5 4 4 4 5 4 5
Wind_Direction
339 354 78 43 62 61 263 256 254 251 209 219 23 190 182 85 170 204 326 155 114 109 105 104 125 121 111 99 84 74 65 59 57 54 55 53 54 49 46 46 36 20 21 28 41 30 2 334 319
337 82 43 80 97 88 266 262 246 233 186 122 114 67 44 251 84 112 110 179 106 106 90 99 118 109 103 98 89 79 69 58 52 49 50 51 50 48 43 44 42 29 19 19 28 20 26 15 332
247 46 86 102 125 189 223 230 253 266 283 199 126 52 148 193 141 167 214 129 107 99 103 109 120 113 102 89 83 77 68 61 54 48 44 45 45 41 36 39 34 33 22 19 15 16 13 358 356
75 17 35 98 228 252 218 221 222 297 306 250 115 137 325 236 179 176 135 122 112 114 112 127 122 110 99 88 78 73 68 61 52 49 49 45 40 39 37 30 27 25 23 15 12 5 359 0 356
37 56 76 253 255 263 251 249 205 204 248 212 187 209 213 57 86 134 133 130 128 112 92 106 113 103 96 86 79 71 67 66 56 52 50 43 39 33 29 25 26 23 20 15 8 1 357 355 357
48 100 81 228 247 256 272 274 187 212 204 8 119 142 217 333 128 153 127 127 125 125 99 78 94 94 91 84 81 79 74 64 58 58 50 44 39 35 30 23 19 22 17 9 5 5 6 3 357
121 97 209 219 256 292 242 316 144 167 182 234 150 200 268 227 138 133 124 120 122 117 110 99 84 84 83 81 77 77 75 71 59 55 50 46 38 32 27 24 18 17 9 9 9 2 358 357 356
106 97 209 244 215 259 327 335 125 181 261 315 163 225 258 194 135 118 111 127 135 136 131 129 108 89 72 59 82 80 78 73 60 56 49 47 38 31 23 17 13 10 6 5 2 360 360 359 356
128 74 221 246 169 242 351 18 338 306 280 329 257 175 338 129 120 111 110 108 125 143 145 138 132 126 108 99 65 64 69 67 57 50 47 40 26 19 23 13 12 8 6 359 358 360 2 359 355
118 153 217 216 227 212 251 25 315 340 3 284 281 109 73 133 153 159 173 175 175 171 167 157 140 145 138 100 73 65 62 56 53 50 49 37 35 19 28 16 13 4 4 359 360 359 359 355 344
171 201 215 246 227 246 251 242 213 259 268 224 240 223 127 145 177 181 191 181 179 179 172 167 151 143 133 120 105 71 61 47 35 37 37 32 31 23 25 11 360 354 3 355 355 352 347 348 346
189 232 214 238 147 229 245 223 247 222 230 117 114 170 170 184 193 196 196 180 167 174 177 174 158 139 124 105 94 95 81 55 39 24 26 28 19 12 8 9 356 358 348 348 344 338 334 343 341
249 268 222 268 278 254 295 245 243 261 258 271 272 205 199 204 212 220 187 161 169 185 178 175 154 144 142 125 112 88 58 47 23 20 11 27 23 11 1 357 352 348 345 345 335 332 331 331 334
267 280 278 277 238 256 219 241 134 276 52 322 1 249 247 229 219 170 183 185 190 182 171 155 158 150 135 120 109 92 65 32 15 0 0 11 27 11 12 355 350 345 342 330 330 327 328 323 323
311 314 320 243 204 216 162 282 230 250 329 300 349 3 335 269 236 218 217 199 185 179 148 157 149 145 139 134 125 116 98 57 12 350 358 21 46 33 4 349 346 337 332 339 344 344 339 334 326
80 53 330 257 139 224 129 266 276 352 12 325 325 335 337 335 329 305 234 196 174 142 156 149 145 138 134 132 122 106 75 60 34 12 4 11 37 25 2 357 349 339 349 357 348 346 331 326 324
359 230 206 312 204 137 162 265 275 34 2 314 327 350 349 351 353 347 331 205 158 147 142 128 125 132 125 109 95 81 71 75 45 21 4 1 355 0 34 6 343 350 353 356 344 335 331 319 320
193 213 237 229 345 66 225 260 284 325 331 305 340 2 15 14 352 347 15 49 81 101 106 113 114 118 106 89 67 46 48 37 8 21 13 355 345 360 32 2 354 356 358 349 342 322 319 302 308
138 180 200 222 52 286 246 268 279 321 18 3 8 20 36 35 349 29 39 44 65 63 92 106 119 124 110 76 86 60 7 321 347 356 359 39 36 19 1 2 6 7 10 341 335 324 330 319 328
179 187 234 274 110 314 324 282 267 276 304 310 305 352 17 61 36 38 49 48 52 94 101 111 126 130 104 107 133 128 146 284 279 349 39 28 11 6 9 30 17 10 1 359 343 334 331 295 11
203 191 184 197 333 112 334 288 212 233 181 232 225 253 305 309 324 6 47 71 92 116 147 151 150 141 125 125 96 51 36 359 350 358 1 352 360 14 46 37 25 3 8 347 345 341 12 353 357
192 175 127 119 87 234 14 280 268 203 228 233 243 282 294 337 347 287 236 205 194 208 191 165 165 164 162 146 127 158 185 228 222 281 303 315 334 46 25 30 33 16 355 4 347 360 346 338 336
210 114 117 109 94 49 282 76 268 127 244 236 216 214 217 291 287 282 266 239 222 188 193 197 195 199 170 162 159 174 205 228 266 292 302 305 312 35 21 36 27 18 7 354 336 346 340 337 322
136 83 60 56 86 346 227 147 260 193 203 186 176 196 268 317 305 290 269 239 225 203 210 214 212 219 178 174 184 205 222 235 243 254 272 285 276 15 0 352 357 345 334 321 305 310 299 294 290
84 117 14 348 14 221 253 152 253 231 209 181 181 270 339 329 333 315 303 268 248 235 231 229 217 220 195 197 208 216 226 230 237 246 242 247 278 300 299 334 337 312 294 294 299 288 277 279 282
185 162 166 203 195 246 44 233 253 212 216 253 241 245 295 332 332 306 294 285 258 262 221 210 201 221 192 203 221 225 239 232 241 241 233 237 216 234 270 274 278 283 285 283 269 263 258 253 261
178 195 136 103 52 47 232 288 286 154 321 332 336 81 342 338 331 314 308 305 278 256 227 212 214 223 210 213 223 236 242 242 242 243 238 221 236 250 249 276 268 276 273 262 260 254 258 266 272
143 162 101 7 152 241 281 277 242 226 223 250 342 309 310 317 337 330 325 315 305 277 252 211 201 212 219 214 224 252 240 257 259 246 240 231 238 249 264 257 263 263 259 255 252 261 264 267 268
142 185 87 116 132 163 229 259 213 205 179 177 217 237 250 283 298 313 328 327 307 304 299 274 243 232 241 234 230 241 252 263 272 243 231 239 242 251 255 260 259 256 259 255 256 262 268 261 269
99 188 163 137 211 167 153 271 254 203 174 162 227 250 232 237 286 310 315 319 329 313 290 264 257 241 243 237 224 240 241 243 256 258 268 253 251 254 249 254 252 255 248 255 259 267 254 254 286